W2KFV-2 Weather Reports


Display with metric or nautical units.
time (UTC)temp
F
wind
direction
speed
MPH
gust
MPH
rain 1hr
in
rain 24hr
in
rain mn
in
humidity
%
barometer
mb
20210731184005 76 282 2.0 12.0 0.00 0.00 0.00 43 1012.6
20210731183005 76 257 2.0 8.0 0.00 0.00 0.00 43 1012.6
20210731182005 77 287 3.0 12.0 0.00 0.00 0.00 43 1012.5
20210731181005 75 314 3.0 10.0 0.00 0.00 0.00 46 1012.7
20210731180004 76 264 4.0 10.0 0.00 0.00 0.00 44 1012.6
20210731175004 76 281 2.0 9.0 0.00 0.00 0.00 46 1012.7
20210731174005 75 287 3.0 7.0 0.00 0.00 0.00 46 1012.8
20210731173005 75 277 6.0 14.0 0.00 0.00 0.00 45 1013.0
20210731172004 75 291 5.0 8.0 0.00 0.00 0.00 45 1013.1
20210731171005 74 35 4.0 12.0 0.00 0.00 0.00 48 1013.2
20210731170005 73 275 3.0 10.0 0.00 0.00 0.00 47 1013.3
20210731165005 74 326 2.0 8.0 0.00 0.00 0.00 48 1013.4
20210731164005 74 8 2.0 9.0 0.00 0.00 0.00 48 1013.6
20210731163005 73 288 2.0 12.0 0.00 0.00 0.00 48 1013.8
20210731162005 74 289 2.0 5.0 0.00 0.00 0.00 47 1013.7
20210731161005 74 12 2.0 8.0 0.00 0.00 0.00 49 1013.8
20210731160005 73 257 0.0 13.0 0.00 0.00 0.00 50 1013.8
20210731155005 72 319 1.0 12.0 0.00 0.00 0.00 50 1013.9
20210731154005 72 258 3.0 8.0 0.00 0.00 0.00 46 1013.9
20210731153005 73 288 3.0 8.0 0.00 0.00 0.00 48 1013.9
20210731152004 72 274 4.0 7.0 0.00 0.00 0.00 50 1013.8
20210731151004 71 292 2.0 9.0 0.00 0.00 0.00 51 1014.0
20210731150005 72 303 2.0 6.0 0.00 0.00 0.00 53 1013.8
20210731145005 72 288 3.0 8.0 0.00 0.00 0.00 52 1013.8
20210731144005 72 273 1.0 3.0 0.00 0.00 0.00 54 1013.8
20210731143005 71 255 1.0 3.0 0.00 0.00 0.00 56 1013.8
20210731142005 70 279 1.0 6.0 0.00 0.00 0.00 57 1014.0
20210731141005 70 267 1.0 5.0 0.00 0.00 0.00 57 1013.9
20210731140004 70 269 2.0 7.0 0.00 0.00 0.00 57 1014.0
20210731135004 70 38 3.0 6.0 0.00 0.00 0.00 60 1014.2
20210731134004 68 300 1.0 9.0 0.00 0.00 0.00 61 1014.3
20210731133005 69 270 3.0 6.0 0.00 0.00 0.00 61 1014.2
20210731132005 69 274 0.0 5.0 0.00 0.00 0.00 61 1014.2
20210731131005 68 297 2.0 3.0 0.00 0.00 0.00 62 1014.2
20210731130004 68 309 1.0 5.0 0.00 0.00 0.00 62 1014.3
20210731125005 67 251 2.0 6.0 0.00 0.00 0.00 64 1014.4
20210731124004 67 287 4.0 7.0 0.00 0.00 0.00 62 1014.5
20210731123004 67 322 1.0 3.0 0.00 0.00 0.00 64 1014.5
20210731122004 66 289 2.0 6.0 0.00 0.00 0.00 65 1014.5
20210731121005 65 288 2.0 5.0 0.00 0.00 0.00 66 1014.6
20210731120004 65 308 1.0 5.0 0.00 0.00 0.00 67 1014.5
20210731115005 64 311 2.0 3.0 0.00 0.00 0.00 68 1014.4
20210731114004 64 288 0.0 3.0 0.00 0.00 0.00 69 1014.4
20210731113004 64 316 1.0 3.0 0.00 0.00 0.00 71 1014.2
20210731112005 63 279 0.0 1.0 0.00 0.00 0.00 74 1014.2
20210731111005 64 280 0.0 0.0 0.00 0.00 0.00 78 1014.3
20210731110004 62 280 0.0 0.0 0.00 0.00 0.00 81 1014.3
20210731105004 60 280 0.0 0.0 0.00 0.00 0.00 84 1014.2
20210731104005 58 280 0.0 0.0 0.00 0.00 0.00 87 1014.2
20210731103005 56 280 0.0 0.0 0.00 0.00 0.00 87 1014.1
20210731102004 55 280 0.0 0.0 0.00 0.00 0.00 87 1014.1
20210731101004 56 280 0.0 0.0 0.00 0.00 0.00 87 1014.1
20210731100004 55 280 0.0 0.0 0.00 0.00 0.00 86 1014.0
20210731095004 56 280 0.0 0.0 0.00 0.00 0.00 85 1013.9
20210731094004 56 280 0.0 0.0 0.00 0.00 0.00 85 1013.9
20210731093005 57 280 0.0 0.0 0.00 0.00 0.00 84 1013.8
20210731092005 57 280 0.0 1.0 0.00 0.00 0.00 84 1013.7
20210731091005 57 280 0.0 0.0 0.00 0.00 0.00 83 1013.7
20210731090004 57 280 0.0 0.0 0.00 0.00 0.00 82 1013.5
20210731085004 57 280 0.0 0.0 0.00 0.00 0.00 82 1013.4
20210731084005 57 280 0.0 0.0 0.00 0.00 0.00 81 1013.3
20210731083005 57 280 0.0 0.0 0.00 0.00 0.00 81 1013.2
20210731082004 57 280 0.0 0.0 0.00 0.00 0.00 80 1013.2
20210731081005 58 280 0.0 0.0 0.00 0.00 0.00 77 1013.1
20210731080004 58 280 0.0 0.0 0.00 0.00 0.00 76 1013.1
20210731075004 59 280 0.0 0.0 0.00 0.00 0.00 75 1013.0
20210731074005 60 280 0.0 1.0 0.00 0.00 0.00 72 1012.9
20210731073005 60 280 0.0 0.0 0.00 0.00 0.00 72 1012.9
20210731072004 61 270 0.0 1.0 0.00 0.00 0.00 71 1013.0
20210731071005 61 9 0.0 2.0 0.00 0.00 0.00 71 1012.7
20210731070004 60 15 0.0 1.0 0.00 0.00 0.00 73 1012.7
20210731065004 60 15 0.0 1.0 0.00 0.00 0.00 72 1012.7
20210731064005 61 15 0.0 0.0 0.00 0.00 0.00 72 1012.8
20210731063004 61 15 0.0 0.0 0.00 0.00 0.00 70 1012.8
20210731062005 62 15 0.0 0.0 0.00 0.00 0.00 69 1012.8
20210731061004 62 15 0.0 2.0 0.00 0.00 0.00 68 1012.7
20210731060004 62 15 0.0 1.0 0.00 0.00 0.00 68 1012.7
20210731055004 62 15 0.0 1.0 0.00 0.00 0.00 68 1012.7
20210731054004 62 15 0.0 0.0 0.00 0.00 0.00 68 1012.7
20210731053004 63 15 0.0 1.0 0.00 0.00 0.00 67 1012.7
20210731052004 63 16 0.0 2.0 0.00 0.00 0.00 66 1012.7
20210731051004 64 7 0.0 1.0 0.00 0.00 0.00 65 1012.6
20210731050004 65 356 0.0 1.0 0.00 0.00 0.00 62 1012.7
20210731045004 66 356 1.0 3.0 0.00 0.00 0.00 60 1012.8
20210731044005 66 48 2.0 5.0 0.00 0.00 0.00 59 1012.7
20210731043004 66 102 1.0 6.0 0.00 0.00 0.00 58 1012.5
20210731042004 66 333 1.0 5.0 0.00 0.00 0.00 59 1012.7
20210731041004 67 31 1.0 5.0 0.00 0.00 0.00 57 1012.7
20210731040004 67 11 1.0 7.0 0.00 0.00 0.00 56 1012.6
20210731035004 67 293 1.0 5.0 0.00 0.00 0.00 57 1012.6
20210731034004 67 323 1.0 5.0 0.00 0.00 0.00 56 1012.5
20210731033004 68 342 1.0 6.0 0.00 0.00 0.00 56 1012.3
20210731032005 68 25 0.0 3.0 0.00 0.00 0.00 56 1012.2
20210731031004 69 299 1.0 5.0 0.00 0.00 0.00 54 1012.2
20210731030004 69 304 2.0 3.0 0.00 0.00 0.00 53 1012.3
20210731025004 70 5 2.0 6.0 0.00 0.00 0.00 52 1012.2
20210731024004 70 297 2.0 6.0 0.00 0.00 0.00 52 1012.1
20210731023005 70 323 1.0 12.0 0.00 0.00 0.00 51 1012.2
20210731022004 71 243 2.0 7.0 0.00 0.00 0.00 50 1012.1
20210731021004 71 279 2.0 13.0 0.00 0.00 0.00 50 1011.9
20210731020004 72 303 2.0 10.0 0.00 0.00 0.00 50 1011.8
20210731015004 72 309 3.0 12.0 0.00 0.00 0.00 50 1011.6
20210731014004 72 294 1.0 9.0 0.00 0.00 0.00 51 1011.4
20210731013004 73 63 2.0 7.0 0.00 0.00 0.00 51 1011.4
20210731012004 73 338 1.0 5.0 0.00 0.00 0.00 50 1011.1
20210731011004 73 277 1.0 7.0 0.00 0.00 0.00 50 1010.9
20210731010004 74 326 3.0 10.0 0.00 0.00 0.00 49 1010.6
20210731005004 74 329 3.0 8.0 0.00 0.00 0.00 50 1010.5
20210731004011 74 304 2.0 6.0 0.00 0.01 0.00 49 1010.2
20210731003005 75 272 2.0 7.0 0.00 0.01 0.00 48 1010.0
20210731002004 75 329 4.0 9.0 0.00 0.01 0.00 47 1010.0
20210731001004 76 310 4.0 12.0 0.00 0.01 0.00 46 1009.8
20210731000004 76 348 3.0 9.0 0.00 0.01 0.00 46 1009.6
20210730235004 77 291 2.0 13.0 0.00 0.01 0.00 45 1009.3
20210730234004 77 296 5.0 12.0 0.00 0.01 0.00 44 1009.2
20210730233004 78 284 3.0 10.0 0.00 0.01 0.00 43 1009.1
20210730232004 78 308 3.0 12.0 0.00 0.01 0.00 42 1009.1
20210730231004 79 310 3.0 12.0 0.00 0.01 0.00 41 1009.0
20210730230004 79 299 4.0 15.0 0.00 0.01 0.00 40 1008.9
20210730225004 79 303 6.0 13.0 0.00 0.01 0.00 41 1008.7
20210730224004 80 271 3.0 12.0 0.00 0.03 0.00 40 1008.5
20210730223004 80 106 3.0 10.0 0.00 0.04 0.00 41 1008.3
20210730222004 81 317 1.0 15.0 0.00 0.05 0.00 42 1008.2
20210730221004 81 298 5.0 14.0 0.00 0.07 0.00 42 1008.0
20210730220004 81 328 5.0 12.0 0.00 0.08 0.00 44 1007.9
20210730215004 81 300 3.0 12.0 0.00 0.09 0.00 44 1007.7
20210730214004 82 352 5.0 13.0 0.00 0.10 0.00 44 1007.7
20210730213005 82 305 3.0 12.0 0.00 0.10 0.00 44 1007.5
20210730212006 82 281 5.0 14.0 0.00 0.10 0.00 44 1007.5
20210730211006 82 306 5.0 13.0 0.00 0.10 0.00 44 1007.3
20210730210006 82 283 4.0 12.0 0.00 0.10 0.00 45 1007.1
20210730205006 83 326 3.0 10.0 0.00 0.10 0.00 46 1006.9
20210730204005 83 22 3.0 14.0 0.00 0.10 0.00 46 1006.9
20210730203006 84 280 4.0 12.0 0.00 0.10 0.00 46 1006.8
20210730202005 83 343 2.0 10.0 0.00 0.10 0.00 51 1006.8
20210730201006 83 3 2.0 12.0 0.00 0.10 0.00 49 1006.8
20210730200005 84 343 4.0 12.0 0.00 0.10 0.00 48 1006.7
20210730195006 85 351 5.0 13.0 0.00 0.10 0.00 42 1006.6
20210730194005 85 311 6.0 13.0 0.00 0.10 0.00 41 1006.6
20210730193006 84 279 5.0 15.0 0.00 0.10 0.00 41 1006.5
20210730192005 84 287 4.0 14.0 0.00 0.10 0.00 43 1006.4
20210730191006 84 282 7.0 15.0 0.00 0.10 0.00 42 1006.5
20210730190005 84 295 7.0 13.0 0.00 0.10 0.00 41 1006.5
20210730185006 83 288 8.0 15.0 0.00 0.10 0.00 45 1006.5